This demonstration page uses our WeatherBlox Daily Observations layout. Learn more.

Left ArrowRight Arrow

Hourly Observations for February 15, 2015

Temp ( °F °C ) Dew Point ( °F °C ) Humidity (%) Winds ( mph kmh ) Pressure ( in mb ) Visibility ( mi km ) Precip ( " mm )
12:53 am 00:53 Clear 55 12.8 45 7.2 69 69 SSE 9 15 29.98 1015 10 16 0.00 0.00
1:53 am 01:53 Clear 55 12.8 46 7.8 72 72 SE 8 13 29.97 1015 10 16 0.00 0.00
2:53 am 02:53 Clear 52 11.1 45 7.2 77 77 SE 7 11 29.96 1014 10 16 0.00 0.00
3:53 am 03:53 Clear 52 11.1 46 7.8 80 80 SE 7 11 29.94 1014 10 16 0.00 0.00
4:53 am 04:53 Clear 53 11.7 47 8.3 80 80 SE 8 13 29.92 1013 10 16 0.00 0.00
5:53 am 05:53 Clear 52 11.1 47 8.3 83 83 SE 7 11 29.92 1013 10 16 0.00 0.00
6:53 am 06:53 Clear 51 10.6 46 7.8 83 83 SE 7 11 29.93 1014 9 14 0.00 0.00
7:53 am 07:53 Sunny 51 10.6 46 7.8 83 83 SE 9 15 29.93 1014 8 13 0.00 0.00
8:53 am 08:53 Sunny 54 12.2 48 8.9 80 80 SSE 8 13 29.93 1013 10 16 0.00 0.00
9:53 am 09:53 Sunny 62 16.7 49 9.4 62 62 SSE 7 11 29.91 1013 10 16 0.00 0.00
10:53 am 10:53 Sunny 69 20.6 48 8.9 47 47 SSW 14 22 29.88 1012 10 16 0.00 0.00
11:53 am 11:53 Sunny 73 22.8 48 8.9 41 41 SSW 15 24 29.85 1011 10 16 0.00 0.00
12:53 pm 12:53 Mostly Sunny 75 23.9 47 8.3 37 37 SW 18 30 29.81 1009 10 16 0.00 0.00
1:53 pm 13:53 Sunny 77 25 47 8.3 35 35 SW 18 30 29.75 1008 10 16 0.00 0.00
2:53 pm 14:53 Sunny 79 26.1 44 6.7 29 29 W 17 28 29.72 1006 10 16 0.00 0.00
3:53 pm 15:53 Mostly Sunny 80 26.7 44 6.7 28 28 WSW 16 26 29.69 1006 10 16 0.00 0.00
4:53 pm 16:53 Sunny 79 26.1 42 5.6 27 27 WSW 16 26 29.67 1005 10 16 0.00 0.00
5:53 pm 17:53 Sunny 78 25.6 40 4.4 26 26 WSW 16 26 29.68 1005 10 16 0.00 0.00
6:53 pm 18:53 Clear 70 21.1 40 4.4 34 34 SSW 8 13 29.70 1006 10 16 0.00 0.00
7:53 pm 19:53 Clear 65 18.3 39 3.9 39 39 SW 9 15 29.72 1006 10 16 0.00 0.00
8:53 pm 20:53 Clear 66 18.9 39 3.9 37 37 SW 9 15 29.72 1007 10 16 0.00 0.00
9:53 pm 21:53 Clear 62 16.7 39 3.9 43 43 WSW 8 13 29.72 1007 10 16 0.00 0.00
10:53 pm 22:53 Clear 51 10.6 31 -0.6 46 46 N 23 37 29.79 1009 9 14 0.00 0.00
11:00 pm 23:00 Clear 50 10 30 -1 47 47 N 20 31 29.85 1011 10 16 0.00 0.00
11:53 pm 23:53 Clear 45 7 28 -2 53 53 NNE 23 37 29.97 1015 10 16 0.00 0.00

Powered by AerisWeather